Total_Precipitation_Accumulation
1.24 1.12 0.98 0.96 0.97 0.99 1.03 1.04 0.92 0.78 0.81 0.75 0.47 0.30 0.26 0.24 0.22 0.14 0.12 0.09 0.06 0.04 0.04 0.05 0.07 0.11 0.18 0.25 0.35 0.44 0.48 0.47 0.45 0.41 0.39 0.38 0.37 0.38
1.10 1.04 0.95 0.91 0.91 0.91 0.94 0.98 1.01 0.95 0.86 0.80 0.62 0.37 0.31 0.28 0.24 0.18 0.15 0.09 0.06 0.04 0.03 0.03 0.05 0.07 0.11 0.17 0.25 0.32 0.36 0.37 0.38 0.39 0.39 0.38 0.36 0.37
0.86 0.84 0.82 0.82 0.84 0.83 0.82 0.82 0.94 1.04 0.97 0.99 0.86 0.67 0.49 0.37 0.29 0.24 0.19 0.14 0.10 0.04 0.03 0.03 0.04 0.06 0.09 0.14 0.20 0.28 0.32 0.35 0.37 0.41 0.43 0.43 0.41 0.37
0.79 0.82 0.83 0.86 0.84 0.75 0.74 0.78 0.91 1.05 1.11 1.23 1.30 1.03 0.73 0.50 0.43 0.32 0.20 0.13 0.14 0.07 0.04 0.03 0.03 0.04 0.06 0.11 0.17 0.26 0.33 0.37 0.41 0.43 0.44 0.44 0.45 0.44
0.78 0.82 0.80 0.76 0.73 0.67 0.69 0.75 0.82 0.92 1.00 1.09 1.24 1.05 0.86 0.63 0.61 0.48 0.34 0.32 0.20 0.13 0.06 0.03 0.03 0.03 0.04 0.08 0.15 0.22 0.31 0.39 0.42 0.48 0.51 0.49 0.51 0.54
0.69 0.67 0.62 0.59 0.58 0.55 0.55 0.61 0.67 0.71 0.76 0.82 0.94 0.99 1.02 0.95 0.89 0.78 0.67 0.56 0.43 0.29 0.23 0.10 0.06 0.04 0.04 0.06 0.11 0.19 0.28 0.37 0.43 0.48 0.54 0.57 0.61 0.63
0.58 0.53 0.42 0.43 0.43 0.39 0.38 0.47 0.52 0.58 0.63 0.69 0.82 0.95 1.03 1.07 1.01 0.99 0.90 0.83 0.69 0.61 0.63 0.45 0.35 0.26 0.18 0.13 0.12 0.16 0.24 0.34 0.41 0.49 0.56 0.60 0.66 0.73
0.38 0.39 0.35 0.30 0.27 0.27 0.23 0.24 0.28 0.36 0.49 0.65 0.79 0.95 1.00 0.98 1.10 1.09 1.06 1.02 0.95 0.88 0.89 0.89 0.84 0.71 0.54 0.35 0.26 0.20 0.20 0.28 0.40 0.47 0.54 0.62 0.69 0.76
0.23 0.25 0.24 0.21 0.16 0.13 0.14 0.18 0.18 0.16 0.20 0.41 0.58 0.65 0.66 0.64 0.84 1.04 1.03 1.04 1.13 1.06 1.05 1.12 1.09 0.99 0.76 0.57 0.41 0.28 0.23 0.24 0.31 0.40 0.47 0.56 0.65 0.75
0.15 0.14 0.16 0.16 0.11 0.07 0.08 0.12 0.08 0.06 0.07 0.15 0.20 0.21 0.25 0.34 0.50 0.76 0.98 0.98 1.07 1.11 1.12 1.27 1.26 1.20 1.01 0.78 0.55 0.34 0.27 0.28 0.32 0.37 0.41 0.46 0.52 0.61
0.09 0.10 0.10 0.08 0.07 0.04 0.06 0.10 0.07 0.03 0.01 0.02 0.04 0.06 0.10 0.13 0.21 0.37 0.60 0.90 1.18 1.24 1.15 1.29 1.35 1.38 1.41 1.16 0.85 0.60 0.41 0.33 0.32 0.35 0.39 0.40 0.42 0.46
0.06 0.05 0.05 0.03 0.03 0.02 0.03 0.05 0.05 0.03 0.02 0.03 0.04 0.04 0.06 0.08 0.08 0.17 0.29 0.53 0.83 1.02 1.05 1.17 1.41 1.65 1.79 1.54 1.13 0.82 0.64 0.54 0.45 0.36 0.36 0.38 0.38 0.37
0.05 0.03 0.02 0.01 0.01 0.01 0.00 0.01 0.00 0.01 0.02 0.03 0.04 0.05 0.05 0.06 0.05 0.06 0.11 0.21 0.37 0.50 0.61 0.82 1.05 1.32 1.66 1.75 1.59 1.27 0.99 0.78 0.63 0.52 0.45 0.43 0.45 0.45
0.02 0.01 0.01 0.00 0.00 0.00 0.00 0.00 0.00 0.00 0.02 0.03 0.03 0.03 0.04 0.04 0.04 0.04 0.07 0.11 0.19 0.28 0.38 0.53 0.71 0.93 1.09 1.24 1.35 1.42 1.41 1.26 1.02 0.84 0.70 0.69 0.64 0.66
0.02 0.01 0.01 0.01 0.00 0.00 0.00 0.00 0.00 0.01 0.01 0.02 0.03 0.03 0.03 0.03 0.03 0.05 0.06 0.08 0.11 0.13 0.17 0.28 0.44 0.58 0.70 0.88 1.01 1.10 1.20 1.24 1.19 1.12 1.07 0.96 0.85 0.79
0.02 0.01 0.01 0.01 0.01 0.01 0.01 0.01 0.00 0.01 0.01 0.02 0.03 0.04 0.03 0.03 0.03 0.04 0.06 0.08 0.10 0.13 0.13 0.17 0.27 0.36 0.45 0.57 0.67 0.79 0.92 1.05 1.18 1.22 1.22 1.18 1.09 1.02
0.03 0.03 0.02 0.02 0.02 0.03 0.02 0.01 0.01 0.01 0.02 0.02 0.02 0.04 0.05 0.05 0.04 0.04 0.05 0.08 0.11 0.15 0.14 0.13 0.16 0.23 0.24 0.28 0.44 0.57 0.66 0.75 0.90 1.07 1.19 1.26 1.17 1.09
0.05 0.06 0.06 0.05 0.04 0.03 0.03 0.02 0.03 0.02 0.03 0.03 0.04 0.04 0.05 0.05 0.05 0.05 0.05 0.06 0.09 0.12 0.14 0.13 0.13 0.19 0.24 0.21 0.19 0.29 0.41 0.52 0.60 0.69 0.85 1.04 1.08 1.02
0.06 0.09 0.10 0.08 0.06 0.04 0.03 0.03 0.04 0.04 0.04 0.04 0.06 0.07 0.07 0.06 0.07 0.06 0.06 0.07 0.09 0.10 0.13 0.13 0.12 0.14 0.21 0.28 0.23 0.14 0.21 0.31 0.38 0.44 0.53 0.69 0.85 0.85
0.04 0.08 0.11 0.11 0.08 0.06 0.04 0.03 0.03 0.03 0.03 0.04 0.06 0.06 0.06 0.07 0.08 0.08 0.06 0.06 0.08 0.12 0.16 0.17 0.14 0.12 0.15 0.22 0.23 0.18 0.10 0.16 0.26 0.33 0.36 0.42 0.48 0.57
0.02 0.03 0.05 0.06 0.07 0.07 0.06 0.05 0.04 0.04 0.03 0.03 0.04 0.06 0.06 0.08 0.09 0.11 0.10 0.09 0.08 0.09 0.14 0.19 0.18 0.14 0.16 0.22 0.26 0.26 0.17 0.10 0.13 0.19 0.25 0.31 0.38 0.41
0.01 0.01 0.02 0.02 0.03 0.04 0.05 0.04 0.04 0.04 0.04 0.04 0.04 0.05 0.06 0.08 0.10 0.11 0.12 0.12 0.11 0.11 0.13 0.15 0.16 0.16 0.18 0.22 0.24 0.24 0.22 0.18 0.12 0.09 0.12 0.16 0.21 0.26
0.00 0.00 0.01 0.01 0.01 0.02 0.02 0.03 0.03 0.03 0.03 0.03 0.03 0.04 0.05 0.06 0.06 0.08 0.09 0.10 0.11 0.11 0.12 0.14 0.16 0.18 0.20 0.24 0.28 0.27 0.22 0.20 0.20 0.20 0.15 0.09 0.09 0.09